Dewpoint
57 57 57 58 58 58 58 58 58 58 57 57 57 57 57 57 57 57 56 56 56 56 56 56 57 57 57 57 57 57 58 55 48 43 45 37 64 67 66 65 73 75 73 57 53 51 47 45 43 45 47 47 47 43 45 46 48 49 47 39 38 40 42 48 50 51 53 53 59 60 59 59 61 58 60 58 58 57 57 59 59 60 61 61 62 64 65 65
57 57 57 58 58 58 58 58 58 58 57 57 57 57 57 57 57 57 57 57 56 56 56 57 57 57 57 56 57 57 57 53 46 44 43 62 68 70 67 67 74 74 72 52 49 45 40 39 39 39 44 39 41 40 42 47 46 45 40 41 36 39 43 50 52 56 54 54 59 62 61 61 63 59 58 60 58 55 56 58 59 61 62 63 64 65 65 65
57 57 57 57 58 58 58 58 58 57 57 57 57 57 57 57 57 57 56 56 56 56 56 57 57 57 57 57 57 57 56 49 50 47 43 71 68 70 69 70 75 74 59 49 44 36 33 32 33 36 37 37 40 34 40 38 40 45 37 37 40 42 44 52 57 59 60 58 59 61 61 61 62 60 61 58 59 57 55 58 58 60 61 63 64 65 65 65
57 57 57 57 58 58 58 57 57 57 57 57 57 57 57 57 56 56 56 56 56 56 56 56 57 57 57 58 57 58 55 50 41 38 56 72 69 70 70 75 74 72 54 41 34 30 28 26 30 36 38 34 35 35 29 39 36 49 41 38 44 45 42 55 56 58 60 59 60 58 62 60 61 62 60 60 57 58 57 58 61 60 61 63 63 64 63 64
57 57 57 57 58 58 57 57 57 57 57 57 56 57 57 57 56 56 56 56 56 56 56 56 57 57 57 56 57 56 52 44 34 45 63 71 70 70 73 75 74 60 47 39 34 27 23 26 29 32 30 30 29 24 28 26 34 33 39 39 42 45 45 55 53 59 60 60 59 60 58 60 65 60 59 58 56 55 58 55 61 60 61 63 63 64 63 63
57 57 57 57 57 57 57 57 57 57 57 56 57 57 57 57 56 56 56 56 56 56 56 56 57 57 57 57 56 56 50 27 35 50 69 70 70 70 74 74 73 50 38 31 29 27 27 27 27 27 29 28 23 20 19 19 34 35 39 41 44 44 44 51 58 61 61 61 59 56 59 61 59 60 62 59 59 61 60 60 58 58 61 62 63 63 63 63
57 57 57 57 57 57 57 57 57 57 57 57 57 57 56 56 56 56 56 56 56 56 56 56 57 57 57 58 56 54 48 33 39 63 71 71 70 72 74 72 65 34 29 30 31 30 29 28 27 25 28 25 21 17 17 15 25 33 37 39 42 47 48 52 61 62 60 61 60 64 62 58 61 58 63 60 59 62 58 57 59 59 60 62 63 63 62 62
56 56 56 57 57 57 57 57 57 56 56 56 56 56 56 56 56 56 56 56 56 56 56 57 57 57 58 55 52 44 33 37 55 63 70 71 68 71 70 54 35 30 29 30 30 27 26 24 22 27 27 25 19 17 15 14 21 29 33 48 52 55 56 62 60 61 63 64 65 64 60 61 62 60 60 59 58 60 62 58 58 59 61 62 63 62 62 62
56 56 56 57 56 56 56 56 57 57 56 56 56 56 56 56 56 56 56 56 56 56 57 56 57 56 57 55 47 32 32 47 55 61 59 57 58 64 50 35 30 29 27 25 24 21 21 21 21 28 23 19 18 14 15 15 31 29 34 40 51 58 61 62 64 65 64 66 65 62 60 63 63 64 60 59 56 61 58 57 60 59 60 61 62 62 62 62
56 57 56 56 56 56 56 57 56 56 56 56 56 56 55 55 55 56 56 56 56 56 57 57 57 58 56 52 42 30 38 59 62 57 47 51 55 52 38 32 29 27 25 23 22 20 18 23 24 26 25 22 20 14 12 16 30 38 47 48 53 62 62 63 64 65 65 66 65 61 60 62 64 60 50 58 57 59 57 58 60 61 62 60 61 62 62 61
56 56 56 56 56 56 56 56 56 56 56 56 56 55 55 55 55 55 56 56 56 56 57 57 58 57 54 51 37 26 41 55 61 57 50 54 51 43 36 34 29 26 26 24 21 18 21 28 27 24 21 18 16 12 12 28 37 47 52 55 59 62 62 63 64 64 64 65 64 63 59 61 62 61 52 60 57 56 58 58 61 59 60 60 62 63 63 62
57 56 56 56 56 56 56 56 56 56 56 56 55 55 56 56 55 55 55 56 56 57 57 58 58 57 52 46 32 26 34 46 57 58 54 45 40 38 40 36 33 30 26 22 20 16 30 26 26 23 18 18 13 14 22 37 43 43 51 52 57 60 62 62 63 64 63 62 63 64 58 56 62 56 59 58 56 54 56 58 61 58 59 60 62 62 62 62
57 57 56 56 56 56 56 56 56 56 55 55 55 55 56 57 56 55 55 56 57 57 58 58 59 56 53 38 30 39 45 51 54 53 49 40 37 37 39 38 36 34 27 17 19 29 32 29 28 25 23 18 14 12 17 33 44 40 48 46 45 52 45 62 65 64 62 66 64 62 46 44 57 58 61 61 56 56 54 57 58 58 59 59 61 62 62 62
57 57 56 56 56 56 56 56 56 55 55 55 54 56 57 57 56 56 56 57 57 58 58 59 57 54 52 31 41 46 49 50 50 47 43 38 32 35 39 39 37 34 30 20 29 32 33 33 30 26 22 18 14 16 16 22 37 35 37 35 33 29 40 59 61 63 59 65 64 61 47 40 52 61 64 63 63 57 54 54 56 57 58 58 60 61 62 62
57 56 56 56 56 55 56 55 55 55 55 54 54 55 58 57 57 57 58 58 58 59 59 59 56 54 42 28 46 52 60 45 40 39 36 27 22 25 31 34 30 28 24 26 31 32 31 30 28 22 18 17 16 13 12 12 21 25 22 27 30 24 39 56 56 57 53 65 62 58 50 39 49 58 65 64 64 58 55 53 54 58 59 57 59 59 59 62
56 56 56 56 55 55 55 55 55 54 54 54 54 55 58 59 58 58 58 59 59 59 58 57 54 51 37 26 48 57 45 38 36 32 29 28 20 14 18 20 20 23 20 28 30 32 32 29 23 19 15 15 14 12 12 12 13 20 20 21 24 24 29 32 57 60 62 62 62 58 46 46 52 58 63 65 63 58 55 53 54 58 62 58 59 59 59 61
56 56 56 55 55 55 55 55 55 54 54 53 54 56 59 60 59 59 59 59 59 58 57 52 48 48 36 45 47 43 37 37 37 33 30 31 32 26 20 19 14 17 20 28 29 31 27 23 20 19 17 15 13 12 13 13 15 14 18 19 27 22 19 23 48 61 62 58 53 59 51 45 47 56 61 63 62 57 54 52 53 59 62 60 59 58 59 60
56 56 55 55 55 55 55 55 54 54 53 53 53 57 59 60 61 60 59 59 57 55 54 54 50 43 32 36 32 33 38 38 36 36 31 30 33 28 25 25 25 25 25 28 30 27 23 20 16 17 17 17 16 13 13 12 11 15 20 19 20 23 25 22 21 54 56 59 49 49 53 49 47 51 56 61 62 58 56 52 52 56 57 60 58 60 60 60
56 55 55 55 55 55 54 54 54 53 53 53 54 57 60 61 60 55 49 50 50 45 37 40 38 27 25 30 33 34 35 36 35 36 33 32 32 30 28 28 29 28 25 24 22 22 19 17 16 18 15 16 15 13 11 9 9 9 13 19 23 20 19 19 30 40 46 42 53 47 44 44 47 48 52 59 61 59 56 56 56 56 56 59 61 61 62 61
55 55 55 54 54 54 54 54 53 52 52 52 56 58 58 51 51 49 49 47 42 34 37 35 35 30 29 30 32 33 35 34 33 33 34 33 32 30 28 23 24 23 20 15 18 18 16 16 16 17 17 16 15 14 12 10 8 7 8 13 21 19 22 31 33 34 47 44 40 42 45 47 44 45 51 56 62 59 57 56 59 59 59 61 63 63 61 62
55 55 55 54 54 54 54 53 52 52 51 50 52 53 38 32 25 24 36 40 39 37 33 32 31 29 29 31 32 31 30 30 30 32 33 36 32 30 27 25 17 15 15 12 12 15 14 15 14 15 14 13 11 11 10 8 7 5 7 13 16 19 18 38 36 47 53 46 38 50 45 47 49 48 50 60 58 55 56 57 58 61 60 62 63 63 63 63
55 55 54 54 53 53 53 53 52 51 49 53 50 44 34 34 35 36 35 22 31 31 32 31 37 31 32 32 34 34 31 25 26 31 35 35 32 28 26 23 14 10 11 11 13 14 13 10 10 11 10 9 10 10 10 8 7 7 8 15 17 15 19 43 48 45 52 50 36 48 45 42 47 49 52 60 59 55 55 58 58 60 62 63 63 63 63 63
55 55 55 54 53 52 52 52 51 50 52 47 42 37 34 34 35 42 37 32 26 30 29 31 31 29 29 33 32 33 30 25 22 28 33 34 30 28 22 18 16 12 12 9 8 9 9 7 7 8 12 12 12 14 12 10 9 8 7 9 8 22 11 17 49 54 58 47 45 48 41 36 44 51 56 59 59 61 68 68 66 63 62 63 63 62 62 63
55 55 54 54 54 52 52 51 51 52 51 43 39 35 35 35 37 40 37 28 24 30 27 29 28 26 26 28 31 31 28 24 21 23 32 30 25 22 21 16 14 14 10 9 9 8 6 12 12 13 15 15 13 13 13 10 6 8 8 6 9 7 11 15 36 53 57 55 56 48 42 30 31 43 55 63 63 66 66 67 67 67 68 68 69 66 66 65
55 54 54 53 53 52 51 50 48 44 43 44 39 38 37 40 43 40 35 31 29 28 34 32 32 30 29 34 33 29 28 30 24 25 31 26 23 22 18 17 17 13 12 11 11 11 11 13 16 16 15 15 15 13 12 11 7 7 8 7 6 6 11 13 27 33 43 41 56 51 27 20 41 41 41 61 61 61 65 64 63 65 66 66 64 65 67 68
54 54 53 53 53 51 50 47 42 41 41 37 34 37 38 39 41 45 35 26 20 26 29 26 32 24 30 26 32 29 29 25 25 25 29 25 28 20 21 18 18 14 14 17 14 14 13 18 16 14 14 14 13 12 12 12 8 7 8 10 10 9 8 12 16 28 19 20 51 51 28 19 28 36 48 55 58 60 64 63 63 65 67 65 64 65 65 67
53 53 53 53 52 51 47 37 47 42 37 32 38 40 39 41 53 43 31 23 21 24 21 29 30 31 32 28 30 29 21 21 30 30 28 29 23 24 19 16 19 19 18 17 18 13 15 16 14 15 15 13 11 10 11 12 9 6 12 12 11 9 8 9 14 24 21 39 51 47 38 27 24 31 50 55 55 59 62 62 63 65 65 65 63 64 66 67
53 52 52 52 51 50 48 48 44 39 37 40 42 40 42 50 51 43 33 16 19 25 23 24 25 31 27 30 30 25 21 26 22 27 28 29 26 23 21 16 16 16 18 17 13 15 13 14 13 13 14 11 8 8 13 11 9 14 17 14 15 14 12 11 14 18 23 25 27 41 45 31 28 39 50 52 53 55 58 60 61 63 63 63 63 62 64 68
53 52 51 51 50 51 50 49 48 38 41 43 41 43 43 51 43 32 26 19 26 23 26 23 28 28 28 31 29 26 18 23 19 25 25 28 26 22 19 19 17 16 17 16 11 13 14 14 13 12 11 8 9 11 11 11 9 20 29 23 26 25 21 20 19 23 30 27 22 29 39 30 26 39 47 48 48 50 53 56 58 61 62 62 60 60 63 66
52 51 50 50 50 50 50 49 47 45 46 44 44 47 45 41 35 24 16 14 26 20 22 22 23 22 27 26 26 25 22 18 20 25 25 25 25 20 18 18 18 18 16 17 16 14 14 25 20 13 13 12 14 13 13 12 22 28 30 24 21 23 26 28 31 36 34 27 29 30 34 31 28 33 36 41 49 47 48 51 55 59 61 59 59 59 61 63
50 50 50 50 49 47 48 46 43 44 46 48 46 46 40 36 22 19 15 24 26 21 22 22 21 24 24 23 22 25 23 20 20 24 23 24 22 21 19 17 18 16 15 15 14 15 14 14 19 17 19 15 13 12 13 14 25 27 22 17 18 26 32 34 38 35 27 27 31 32 31 37 28 34 42 47 49 48 49 51 55 56 58 58 58 58 60 62
49 49 50 50 49 48 45 38 45 45 48 47 48 38 31 19 16 15 10 24 23 21 19 19 21 21 23 23 20 22 21 22 20 20 21 21 21 20 19 17 17 14 12 11 9 11 10 11 13 15 27 16 14 11 11 14 29 25 17 19 15 22 27 23 32 27 27 23 39 38 42 41 36 34 34 48 47 51 52 54 53 54 56 57 56 60 63 63
49 49 49 49 49 48 46 49 50 51 50 46 46 33 21 17 17 5 14 19 19 20 19 21 20 19 21 21 21 20 21 19 20 18 17 19 18 19 19 16 16 14 12 11 10 9 8 11 12 13 19 22 14 9 10 12 23 19 15 16 17 19 17 19 19 21 22 25 34 37 49 37 27 32 45 44 50 51 55 55 55 54 55 56 57 59 62 63
48 49 52 50 49 48 49 54 52 50 46 47 41 22 20 13 13 27 22 18 18 17 19 18 18 17 19 18 18 21 19 19 19 18 17 18 16 16 17 18 18 16 14 14 11 9 8 9 9 12 10 18 16 11 9 9 14 16 13 8 13 20 14 19 18 16 14 20 34 47 37 31 28 54 46 50 50 53 53 54 56 57 57 58 58 60 61 63
48 50 53 51 51 50 50 50 51 50 48 37 28 18 15 14 13 11 15 18 18 13 16 15 16 18 18 18 19 19 17 18 19 17 16 15 15 14 14 14 18 16 14 13 13 15 11 10 12 14 13 16 15 15 15 10 8 9 10 10 11 15 17 17 21 18 17 17 23 42 28 28 34 51 51 51 50 52 53 55 57 57 59 60 59 59 60 62
49 53 52 53 51 50 50 50 50 49 45 31 22 20 13 13 9 16 18 18 18 14 11 15 16 17 18 18 20 19 20 20 17 17 15 15 14 14 14 14 15 16 15 13 16 12 13 11 14 17 17 13 11 15 15 13 10 11 10 11 12 15 12 20 22 26 24 23 22 28 28 29 40 44 46 50 51 53 52 54 54 56 57 59 57 59 60 61
47 51 49 49 46 48 51 49 48 49 41 28 20 19 16 15 19 20 24 19 16 15 13 15 17 16 17 17 19 19 18 19 17 16 17 16 15 15 15 15 15 16 15 14 13 14 14 14 14 14 13 13 15 13 14 13 12 12 11 12 18 18 15 20 21 24 21 18 22 23 21 25 31 28 48 50 51 52 51 52 52 57 58 57 57 59 61 61
49 50 50 45 46 49 50 50 49 46 33 26 23 35 22 13 20 21 20 19 18 17 13 14 19 18 18 18 17 19 18 16 16 17 14 16 14 17 15 15 16 16 16 15 14 18 15 12 11 13 13 15 16 14 12 15 14 11 13 15 12 18 20 26 23 22 19 20 22 22 28 27 31 35 42 47 46 49 51 54 55 56 58 58 58 59 61 61
51 49 46 46 48 47 49 53 50 40 30 24 21 24 22 20 23 22 23 21 20 18 12 13 16 19 18 17 18 19 18 16 16 16 16 16 15 16 14 14 15 15 16 16 14 15 16 11 12 15 13 15 13 11 13 11 15 15 16 14 16 18 18 21 21 23 24 21 20 24 28 26 34 29 30 44 46 48 49 51 51 55 57 59 60 59 59 60
45 43 44 47 47 49 53 51 43 31 26 23 21 17 25 19 19 22 24 25 21 17 14 13 17 18 18 18 17 17 18 17 16 16 15 17 13 15 14 15 13 14 14 16 14 14 16 24 14 15 17 14 13 13 11 11 12 14 14 16 16 17 21 18 18 20 21 22 21 23 21 25 40 44 41 45 45 47 49 50 53 55 57 60 60 60 61 61
47 45 44 46 45 50 51 47 34 26 26 26 24 24 22 19 26 27 30 30 26 23 19 17 15 16 18 19 17 16 17 18 17 15 15 14 13 16 13 13 13 13 14 14 15 16 20 20 15 13 15 13 11 17 21 17 16 14 13 15 15 16 21 21 24 23 21 21 26 22 24 31 44 51 51 51 52 50 52 53 52 56 59 61 61 62 63 62
45 35 43 46 47 48 46 37 31 32 28 24 26 24 28 41 29 30 30 29 28 24 25 21 19 16 16 17 18 17 17 17 16 16 15 13 14 14 14 18 16 19 14 17 15 14 20 20 17 15 13 9 19 23 26 25 20 17 16 14 14 16 17 19 19 23 22 22 23 25 26 29 45 50 51 52 51 52 53 54 53 56 60 62 63 64 65 65
43 42 46 47 47 46 44 35 37 34 30 33 33 33 34 34 32 32 30 29 26 26 25 22 20 19 16 16 21 18 18 17 16 15 14 14 14 14 15 18 26 25 22 17 15 20 30 23 19 15 18 18 19 25 29 25 21 18 17 18 16 16 14 17 18 22 21 26 27 26 30 35 53 55 56 57 59 58 58 55 56 54 59 62 65 65 67 67
45 43 43 45 48 46 40 36 34 33 33 35 35 34 35 34 34 33 32 33 30 27 24 23 21 19 20 22 19 19 20 20 17 16 16 17 16 19 15 27 30 23 20 17 20 24 18 27 23 20 22 20 19 23 21 24 22 17 15 16 18 18 20 20 21 27 23 22 23 23 24 25 42 54 55 57 55 54 55 56 57 55 59 62 65 66 67 67
46 44 44 42 45 43 38 38 38 35 35 35 33 35 35 35 34 36 36 32 31 30 30 26 25 26 23 21 21 21 20 19 23 16 18 16 20 29 29 32 30 27 18 24 51 20 16 25 30 17 19 17 17 16 19 23 19 18 18 18 25 21 22 25 21 28 25 38 31 27 28 45 41 52 53 53 52 53 54 55 56 59 60 60 62 65 67 67
39 45 41 40 41 41 42 42 39 38 38 38 35 37 34 34 35 37 36 33 31 32 30 30 29 29 27 26 24 22 20 20 20 23 20 16 17 27 31 32 33 32 54 48 40 29 22 29 30 27 21 15 21 25 16 22 18 16 16 19 19 21 20 25 25 24 22 35 30 33 31 28 32 41 45 49 51 52 53 54 54 57 60 62 63 64 65 67
45 42 42 43 41 40 39 40 40 39 38 39 41 38 36 35 35 35 35 34 33 33 31 32 32 28 28 28 25 22 20 20 23 24 22 20 22 26 29 30 31 43 60 56 48 27 32 28 27 33 27 21 15 21 19 19 15 17 19 17 18 21 25 24 21 24 36 27 23 35 37 30 30 29 34 42 50 52 51 52 54 56 59 59 61 65 65 67
41 43 45 45 43 40 41 41 40 40 40 39 41 39 37 36 36 37 36 34 34 34 33 31 33 33 33 31 34 26 25 25 28 24 25 26 26 22 21 26 27 41 53 34 33 29 28 21 24 21 21 18 19 23 33 20 16 18 18 19 25 23 24 24 25 23 28 25 26 32 36 33 31 26 27 36 47 54 50 50 54 56 57 59 61 61 62 63
41 43 42 42 43 41 41 43 42 41 40 41 43 39 38 37 37 38 38 37 35 35 36 36 35 35 33 34 33 28 42 26 24 37 37 37 33 33 25 24 27 27 28 27 29 40 35 24 23 23 22 16 19 20 22 18 20 19 16 16 17 20 29 24 21 21 22 30 29 29 36 30 25 26 34 37 43 48 52 53 56 58 58 59 59 59 59 62
41 44 39 41 39 40 43 41 41 41 40 45 42 42 39 39 39 39 39 38 36 36 38 38 36 36 35 35 40 36 38 39 38 39 39 38 33 36 31 34 32 31 29 29 27 37 29 31 34 24 25 21 20 27 26 25 23 22 17 16 17 19 22 26 26 26 29 26 26 29 33 33 31 37 48 51 58 60 59 58 55 57 59 58 58 57 58 60
47 50 51 47 40 42 41 39 39 41 39 42 41 42 41 40 39 40 39 39 36 37 39 38 38 38 37 36 37 37 37 38 39 38 38 38 35 37 33 37 33 34 33 33 32 35 28 29 33 31 23 20 20 22 20 20 20 19 20 23 23 22 25 25 28 32 31 28 29 35 34 31 35 42 53 54 55 56 56 55 54 55 55 58 55 54 57 58
49 50 50 48 44 45 39 39 38 36 34 43 42 41 41 40 40 40 40 38 38 38 40 39 40 38 38 37 39 38 38 38 38 37 38 36 35 34 33 33 33 35 35 34 36 31 32 29 30 26 22 22 19 20 16 19 20 19 20 19 26 23 25 21 23 30 30 27 30 34 29 32 49 45 48 51 47 49 52 54 54 55 57 57 54 53 56 58